Location: Çayiçi
(36.4667°N, 30.2333°E)
Time: 01:59:01
(UTC+00:00)

BREEZE-M DEB (TANK) - Pass Details

Date: 09 February 2023
Orbit: 428 x 13835 km, 45.9° (Epoch: 31 March)

Event Time Altitude Azimuth Distance (km) Brightness Sun altitude
Rises 16:30:59 0° 303° (WNW) 2,560 6.5 -12.1°
Reaches altitude 10° 16:32:36 10° 313° (NW) 1,890 5.6 -12.4°
Maximum altitude 16:36:13 38° 25° (NNE) 1,339 4.0 -13.2°
Enters shadow 16:41:56 18° 85° (E) 3,364 5.6 -14.3°
